Temperature
15 15 15 15 15 14 14 13 12 12 13 14 14 14 15 15 16 16 16 16 16 16 16 16 16 16 16 15 15 15 15 15 15 15 16 16 16 16
14 14 14 15 14 14 14 13 13 12 12 13 13 13 14 14 15 15 16 16 16 16 16 16 16 15 15 15 15 15 15 15 15 15 15 15 15 16
13 13 14 14 14 14 14 13 13 13 12 13 13 13 13 13 13 14 14 15 15 15 15 15 15 15 15 15 15 15 15 15 15 15 15 15 15 15
12 12 13 13 13 13 14 14 13 13 13 13 13 12 12 12 12 12 13 13 14 14 14 15 15 14 14 14 14 14 14 14 14 14 14 14 14 14
11 11 12 12 13 13 14 14 13 13 13 13 12 12 12 12 12 12 12 12 12 13 13 13 14 14 14 13 13 13 13 13 13 13 13 13 13 13
10 11 11 12 12 13 13 14 13 13 13 13 12 12 12 12 12 12 11 11 11 12 12 12 12 13 13 13 13 13 13 13 13 13 13 13 13 13
10 10 11 11 12 12 13 13 13 13 13 13 12 12 12 12 12 11 11 11 11 11 11 12 12 12 12 12 12 12 12 12 12 12 12 12 12 12
9 10 10 10 11 12 12 13 13 13 13 13 12 12 12 12 12 11 11 11 10 10 11 11 11 11 11 12 12 12 12 12 12 12 12 12 12 12
9 9 10 10 11 11 12 12 13 13 13 13 13 12 12 12 12 12 11 11 11 10 11 10 10 11 11 11 11 11 11 11 11 11 11 11 11 11
9 9 9 10 10 11 12 12 12 13 13 13 13 13 12 12 12 12 11 11 10 10 10 10 10 10 10 10 10 10 10 10 9 9 9 9 9 10
9 9 9 9 10 10 11 11 12 12 13 13 12 12 12 12 12 11 11 10 9 9 9 10 9 9 9 9 9 8 8 8 8 8 8 8 8 8
9 9 9 9 9 10 10 11 11 12 12 12 12 12 12 12 12 12 11 11 10 8 9 9 9 9 8 8 8 8 8 7 7 7 7 7 7 7
9 9 9 9 9 9 10 10 11 11 12 12 12 12 11 11 11 11 11 11 11 10 9 10 9 9 9 7 7 7 7 7 7 6 6 6 6 7
8 9 9 8 9 9 9 10 10 11 11 11 11 11 11 11 10 10 10 11 11 12 11 10 10 10 9 8 7 7 7 7 7 7 6 6 6 7
8 8 8 8 8 9 9 10 10 10 11 11 11 11 11 10 10 10 10 10 10 10 11 11 11 10 10 10 8 8 7 7 7 7 7 7 7 7
8 8 8 8 8 8 9 9 10 10 10 11 11 10 10 10 10 10 10 9 10 10 10 10 10 10 10 10 9 8 8 7 7 7 7 7 7 7
8 8 8 7 7 8 8 9 9 10 10 10 10 10 10 10 10 10 10 10 10 10 10 10 9 9 10 10 9 9 8 8 7 7 7 7 7 7
8 8 7 7 7 7 8 8 9 9 10 10 10 10 10 10 10 10 10 10 10 10 10 10 10 9 9 9 9 9 8 8 8 7 7 7 7 8
7 7 7 7 7 7 7 8 8 9 10 10 10 10 10 10 10 10 10 11 11 11 11 10 10 10 9 9 9 9 9 8 8 8 8 8 8 8
7 7 7 7 7 7 7 7 8 9 9 10 10 11 11 11 11 11 11 11 11 11 11 11 11 11 10 10 10 9 9 8 8 8 8 8 8 8
7 7 7 7 7 6 7 7 8 9 9 10 10 10 10 11 11 11 11 11 11 11 11 11 11 11 10 10 10 9 9 9 8 8 8 8 8 8
7 7 6 6 6 6 7 7 8 9 9 10 10 10 10 11 11 10 10 10 10 10 10 10 10 10 10 10 9 9 9 9 9 9 9 9 9 9
7 6 6 6 6 6 7 7 8 9 9 10 10 10 10 10 10 10 10 10 10 10 10 10 10 9 9 9 9 9 9 9 9 9 9 9 9 9
Wind_Speed
10 9 7 6 6 6 6 5 4 2 2 2 1 2 3 4 5 5 4 5 5 7 9 10 11 11 12 12 12 11 9 8 7 5 4 4 5 7
8 9 9 6 6 6 7 7 7 5 4 2 2 0 1 2 5 6 8 10 11 12 14 15 16 16 16 16 16 15 14 13 12 10 9 8 7 6
8 9 10 9 7 7 7 7 7 7 7 4 2 1 2 4 3 6 8 8 10 15 17 18 18 18 19 19 19 18 18 17 17 16 17 17 17 17
8 9 10 9 10 8 7 8 8 8 7 6 3 3 2 5 6 6 6 8 9 15 17 18 19 19 19 20 20 20 20 20 20 20 20 21 21 21
6 7 8 9 10 9 9 9 8 7 7 6 5 3 2 4 6 6 8 7 9 13 16 16 17 18 18 19 19 20 21 21 22 23 23 23 23 23
6 6 7 8 9 9 9 10 8 8 7 6 6 4 3 5 6 6 6 5 6 8 12 14 17 18 18 18 18 19 21 23 24 25 25 25 25 24
7 7 6 8 10 9 8 9 9 9 8 7 7 6 5 7 7 5 8 8 6 5 8 8 9 11 13 16 18 20 22 24 25 26 27 27 26 26
7 7 6 8 10 12 14 14 13 11 11 9 9 9 9 8 8 10 10 8 5 4 6 7 7 9 8 11 16 21 23 24 25 26 26 26 26 26
8 7 7 7 8 8 10 14 16 16 14 12 12 11 11 11 13 13 11 7 6 8 8 7 7 9 8 12 18 20 22 23 24 25 25 25 25 25
10 9 9 9 8 8 8 9 11 12 14 12 11 11 11 13 13 12 12 11 10 5 4 6 5 6 7 11 15 18 20 21 22 22 23 23 23 23
10 9 9 9 11 11 9 10 9 8 9 12 12 11 15 18 18 15 15 15 12 5 3 5 5 5 6 6 10 14 16 18 18 19 20 20 20 18
7 7 9 10 11 11 11 11 11 9 8 8 9 13 16 21 22 19 18 17 15 6 3 5 7 5 5 3 5 8 10 12 14 16 17 17 15 11
6 6 5 6 9 11 12 10 11 10 9 10 10 12 13 14 14 12 13 17 16 7 9 7 6 4 5 6 4 4 6 7 8 10 13 13 11 9
7 6 5 5 4 6 8 9 12 12 9 10 11 11 12 13 13 12 10 8 8 11 14 11 8 6 8 8 6 5 4 6 7 8 9 10 7 5
7 8 8 6 3 3 4 9 14 11 10 11 11 11 10 13 13 12 11 10 9 14 15 10 11 8 9 8 8 7 5 4 6 6 8 8 7 6
6 7 8 6 3 3 3 6 9 9 10 11 11 10 11 12 12 12 12 11 10 9 6 8 12 11 8 8 10 8 6 6 6 5 6 6 7 8
8 6 4 3 3 2 2 3 5 8 9 9 12 12 12 11 10 10 10 10 9 10 8 4 6 7 5 7 9 9 6 4 5 6 5 5 5 8
9 7 6 5 4 3 2 3 5 8 9 10 11 12 13 12 10 9 10 11 11 10 9 7 8 6 4 4 4 9 8 5 5 5 4 5 5 5
7 7 6 6 5 3 3 3 4 7 9 11 12 12 11 11 11 11 11 11 10 10 10 10 11 10 9 7 3 5 9 6 6 5 5 4 5 5
5 6 6 6 5 4 4 4 5 8 9 11 11 11 11 11 11 11 11 11 10 8 8 9 11 11 10 10 7 5 8 7 7 7 5 4 2 1
5 5 5 5 5 4 4 5 6 8 11 11 11 12 11 11 10 10 9 12 11 8 10 9 6 7 6 7 6 5 5 7 7 6 6 5 4 4
5 5 5 5 5 5 4 5 7 8 10 10 11 11 10 10 11 11 10 10 9 8 8 7 7 7 5 7 8 7 7 6 5 6 8 8 6 6
4 4 4 5 5 5 5 6 8 9 9 10 10 10 10 10 10 10 10 9 9 9 9 7 5 4 4 5 7 7 8 8 6 6 7 14 17 15
Wind_Direction
213 210 210 211 202 205 206 203 217 251 278 282 312 30 30 24 21 38 52 83 117 134 134 134 136 142 147 151 151 150 153 162 166 177 196 220 237 239
217 217 218 215 208 204 205 208 211 223 246 245 246 345 71 63 50 65 74 81 90 103 107 110 111 111 114 117 118 119 119 117 114 114 112 110 108 104
226 223 227 220 214 208 202 202 207 214 239 253 234 215 154 127 91 81 78 73 82 90 96 99 101 102 103 103 103 103 103 103 104 102 98 94 90 88
239 231 235 229 224 217 206 206 206 207 221 244 239 213 171 149 124 101 85 78 80 84 89 94 96 97 98 97 98 99 99 99 98 96 94 92 89 88
242 236 237 232 231 223 214 210 206 203 209 225 235 214 159 145 129 105 93 85 81 83 83 86 93 97 98 99 100 101 101 100 98 96 94 92 91 90
232 236 238 236 239 232 222 216 200 197 201 216 228 219 175 152 142 133 114 91 85 83 86 91 97 98 101 105 107 107 106 104 102 100 97 94 92 90
231 230 235 245 247 241 229 217 197 196 198 207 215 208 184 168 158 143 131 113 86 95 99 91 95 94 98 104 109 112 110 108 107 104 101 98 94 92
239 241 244 255 258 251 238 221 200 195 198 201 209 209 193 170 153 150 144 139 123 132 107 91 91 90 90 100 112 114 113 111 109 107 104 101 97 93
236 243 254 255 262 264 251 228 212 203 195 195 206 206 188 170 159 159 157 142 130 148 123 100 91 88 88 100 111 114 115 115 113 111 108 105 100 96
236 234 242 257 262 258 246 227 215 211 209 209 214 204 186 170 161 152 139 115 107 109 108 111 106 95 91 96 108 116 119 121 120 119 115 110 103 97
238 232 234 250 258 246 232 222 213 213 212 209 206 189 165 154 146 138 139 135 134 123 91 108 122 107 93 92 102 117 125 129 131 129 125 119 111 101
240 232 232 246 257 241 225 215 209 203 186 179 179 166 159 155 153 155 153 149 145 138 155 121 143 129 109 103 110 118 125 136 144 144 140 134 126 113
234 229 228 243 255 241 223 216 205 184 179 173 165 161 157 158 157 155 156 155 154 147 156 139 151 134 129 141 139 142 143 145 148 157 157 151 144 130
223 216 208 218 247 237 222 206 180 171 171 167 161 158 157 157 155 152 145 136 137 145 153 148 151 153 141 146 148 148 149 154 156 162 170 172 167 151
213 195 187 194 197 190 204 190 174 173 169 165 160 154 151 148 145 140 132 119 111 139 150 150 149 149 149 151 154 156 157 165 169 167 177 188 190 182
187 174 170 172 166 153 148 182 184 176 169 161 149 141 140 143 146 147 148 143 132 137 116 135 153 151 152 151 157 162 163 163 169 176 178 189 199 201
167 165 173 178 179 157 158 179 177 167 158 147 145 145 147 148 148 149 149 152 150 157 153 109 95 98 108 150 162 168 162 158 164 162 169 188 205 209
161 176 184 186 184 171 172 180 172 162 156 150 150 151 154 156 152 155 159 163 161 160 159 150 142 130 109 69 141 169 169 161 157 162 172 188 200 203
171 182 186 186 183 180 186 186 171 160 154 152 151 150 151 153 156 161 165 167 165 162 162 163 166 165 172 176 161 175 174 163 160 170 186 194 203 201
183 183 188 187 181 180 186 181 165 155 150 149 147 146 148 151 154 159 164 165 159 152 157 170 178 178 182 177 164 168 178 169 174 183 186 195 219 248
184 186 188 184 181 183 179 173 164 155 149 146 145 146 148 148 150 154 155 153 152 155 164 172 167 135 116 124 134 155 177 188 176 177 176 185 205 221
186 188 185 184 182 181 169 166 159 150 146 145 146 146 148 149 150 150 152 157 159 152 146 134 138 140 140 162 176 178 177 180 194 200 199 197 193 206
187 186 183 183 181 173 166 167 160 151 150 149 149 148 148 148 149 150 153 153 148 140 135 136 143 146 149 171 184 186 187 188 193 207 230 231 234 243
Height
1470 1472 1473 1474 1475 1475 1476 1477 1479 1479 1478 1478 1478 1477 1478 1478 1479 1479 1480 1481 1482 1484 1485 1487 1489 1492 1494 1497 1499 1501 1504 1507 1510 1513 1516 1519 1522 1524
1463 1466 1467 1469 1470 1472 1472 1473 1475 1476 1476 1476 1476 1476 1475 1476 1476 1476 1477 1478 1480 1481 1483 1484 1486 1489 1491 1493 1496 1498 1501 1504 1506 1509 1513 1515 1517 1518
1455 1458 1461 1463 1465 1467 1468 1469 1471 1472 1472 1473 1473 1474 1473 1473 1474 1474 1475 1476 1477 1479 1480 1482 1484 1486 1489 1491 1493 1496 1498 1501 1504 1507 1509 1511 1513 1514
1447 1450 1453 1456 1458 1461 1463 1465 1466 1468 1468 1469 1470 1471 1471 1472 1472 1473 1473 1474 1475 1477 1479 1481 1483 1485 1487 1489 1492 1494 1497 1500 1502 1505 1507 1509 1510 1512
1440 1442 1445 1449 1451 1454 1457 1459 1461 1463 1464 1465 1466 1468 1469 1470 1471 1472 1472 1473 1474 1476 1478 1480 1482 1484 1487 1489 1492 1494 1497 1499 1502 1504 1506 1508 1509 1510
1433 1435 1437 1440 1444 1447 1450 1453 1456 1457 1459 1460 1462 1464 1466 1467 1468 1470 1471 1473 1474 1476 1478 1480 1483 1485 1488 1490 1493 1495 1498 1500 1502 1504 1506 1508 1509 1510
1428 1430 1431 1434 1437 1440 1443 1446 1449 1451 1453 1454 1457 1459 1461 1463 1465 1467 1469 1471 1474 1476 1478 1481 1484 1486 1489 1492 1494 1497 1499 1501 1503 1505 1507 1508 1510 1511
1422 1424 1426 1428 1430 1432 1435 1439 1442 1445 1447 1448 1451 1453 1456 1458 1461 1463 1466 1469 1472 1476 1479 1482 1485 1488 1491 1493 1496 1498 1500 1503 1504 1506 1508 1509 1511 1511
1417 1419 1420 1422 1423 1425 1428 1431 1435 1438 1440 1443 1445 1447 1450 1453 1456 1460 1463 1466 1468 1473 1479 1481 1486 1489 1492 1495 1497 1500 1502 1504 1506 1508 1509 1510 1511 1512
1412 1413 1415 1416 1418 1419 1421 1424 1427 1430 1433 1436 1438 1442 1445 1449 1453 1456 1459 1464 1469 1474 1479 1481 1487 1490 1494 1497 1500 1502 1504 1506 1508 1509 1510 1512 1512 1513
1405 1407 1409 1410 1411 1412 1414 1417 1420 1423 1427 1430 1433 1436 1440 1444 1447 1451 1456 1460 1466 1473 1479 1481 1486 1491 1495 1498 1501 1503 1505 1507 1509 1511 1512 1513 1514 1515
1399 1401 1403 1404 1404 1405 1407 1410 1413 1417 1421 1424 1427 1431 1434 1438 1442 1447 1451 1457 1462 1470 1477 1481 1485 1489 1495 1499 1501 1504 1506 1508 1510 1512 1514 1515 1516 1517
1393 1395 1397 1398 1398 1399 1401 1403 1407 1412 1415 1419 1422 1426 1430 1434 1439 1444 1449 1454 1459 1464 1472 1478 1484 1488 1492 1497 1501 1504 1507 1508 1510 1512 1515 1516 1518 1519
1388 1390 1392 1393 1392 1393 1394 1398 1402 1407 1411 1414 1418 1422 1427 1431 1437 1442 1449 1455 1461 1465 1471 1477 1482 1487 1491 1495 1499 1503 1506 1509 1511 1513 1515 1517 1518 1519
1383 1385 1387 1387 1388 1388 1389 1392 1397 1401 1406 1410 1414 1419 1425 1430 1436 1443 1450 1457 1464 1470 1475 1480 1484 1488 1491 1494 1498 1502 1505 1508 1511 1513 1515 1517 1519 1520
1378 1381 1382 1383 1383 1384 1386 1388 1392 1397 1402 1406 1411 1417 1424 1430 1437 1443 1450 1457 1464 1470 1475 1480 1485 1489 1492 1495 1498 1501 1504 1507 1509 1512 1514 1517 1518 1520
1374 1377 1378 1379 1380 1381 1383 1385 1389 1394 1399 1404 1410 1416 1423 1430 1437 1444 1451 1457 1462 1467 1473 1479 1484 1489 1493 1496 1498 1501 1504 1507 1509 1511 1513 1515 1517 1518
1371 1373 1375 1376 1377 1378 1379 1382 1385 1390 1396 1403 1409 1416 1423 1430 1437 1444 1451 1456 1462 1467 1472 1476 1481 1486 1492 1496 1499 1501 1503 1506 1508 1510 1512 1514 1515 1517
1367 1370 1372 1374 1375 1376 1377 1380 1383 1389 1395 1402 1409 1416 1423 1430 1437 1443 1449 1455 1461 1466 1471 1475 1479 1484 1488 1492 1496 1500 1502 1504 1506 1508 1510 1512 1513 1515
1365 1368 1370 1371 1373 1374 1376 1379 1382 1388 1394 1401 1409 1417 1424 1430 1436 1443 1448 1454 1459 1464 1468 1473 1478 1482 1485 1489 1493 1496 1500 1502 1504 1506 1508 1510 1511 1513
1364 1366 1368 1370 1372 1373 1375 1378 1382 1387 1395 1402 1410 1417 1424 1430 1436 1442 1447 1452 1457 1462 1466 1471 1476 1481 1484 1488 1492 1494 1497 1500 1502 1504 1506 1508 1509 1511
1363 1365 1367 1368 1370 1372 1375 1378 1383 1389 1396 1404 1411 1418 1424 1430 1436 1440 1445 1450 1455 1460 1465 1470 1474 1478 1482 1486 1489 1492 1495 1498 1500 1502 1504 1506 1507 1508
1362 1364 1366 1368 1370 1372 1375 1379 1384 1391 1398 1405 1412 1418 1424 1430 1435 1440 1445 1449 1454 1459 1464 1468 1472 1477 1480 1484 1487 1490 1493 1495 1497 1499 1501 1503 1504 1505